Location: Little Elm
(33.1626°N, 96.9375°W)
Time: 06:09:30
(UTC+00:00)

H-2A R/B (2) - Pass Details

Date: 30 June 2022
Orbit: 426 x 34397 km, 28.9° (Epoch: 12 August)

Event Time Altitude Azimuth Distance (km) Brightness Sun altitude
Exits shadow 07:51:43 11° 181° (S) 18,726 8.5 -30.5°
Maximum altitude 16:22:58 69° 167° (SSE) 6,347 8.0 60.1°
Drops below altitude 10° 16:39:16 10° 87° (E) 4,702 6.6 63.4°
Sets 16:41:12 0° 84° (E) 5,086 6.6 63.8°
